TIME,DELAY(SENSOR),PRES,OXYGEN,RAWTEMP,T(OPTODE),TCPHASE,FLUOR,BETA(BETA700),BETA(BETA412),BETA(BETA440),CDOM,C(CSC),ED(ED412.20),ED(ED444.00),ED(ED489.60),ED(ED554.30),LU(LU412.10),LU(LU443.90),LU(LU489.70),LU(LU554.70),COMP,TILTX,TILTY,CHECK
1355626312,5810,892.7999877929688000,34.6684608459472660,562.1461791992188000,4.4193630218505860,56.3589401245117200,55,100,101,78,82,15555,0,0,0,0,2147125805,2147766436,2147570066,2147570441,1632,3,13,58282
1355629908,5811,964.6400146484375000,39.8442993164062500,568.0731811523438000,4.2354221343994140,55.6159400939941400,55,98,100,77,82,15553,0,0,0,0,2147125851,2147775277,2147570486,2147569590,3090,3,13,18949
1355633508,5810,980.1799926757812000,39.4942207336425800,568.9371948242188000,4.2085838317871090,55.6823501586914060,55,99,100,78,83,15553,0,0,0,0,2147125449,2147768512,2147576923,2147568758,316,3,13,13130
1355637108,5809,978.2199707031250000,39.9470901489257800,569.6301269531250000,4.1870541572570800,55.6206817626953100,55,98,100,78,81,15556,0,0,0,0,2147123757,2147772086,2147576064,2147568475,3588,3,13,10653
1355640708,5811,975.0599975585938000,40.0098190307617200,570.1580810546875000,4.1706490516662600,55.6108894348144500,55,98,100,77,82,15553,0,0,0,0,2147128512,2147771840,2147574710,2147571126,3531,3,13,22319
1355644308,5809,981.6599731445312000,40.3785400390625000,570.2293090820312000,4.1684360504150390,55.5601310729980500,55,96,101,77,82,15551,0,0,0,0,2147126555,2147772717,2147573796,2147569856,3439,3,13,32703
1355647908,5809,988.4500122070312000,40.0987091064453100,570.1458740234375000,4.1710281372070310,55.6049690246582000,54,98,102,77,81,15553,0,0,0,0,2147128384,2147769161,2147572800,2147568448,3410,3,13,27788
1355651508,5813,984.9899902343750000,40.3404502868652340,570.2778930664062000,4.1669239997863770,55.5707206726074200,55,98,100,78,82,15551,0,0,0,0,2147124278,2147770861,2147573997,2147571565,27,3,13,59938
1355655108,5809,982.6900024414062000,41.6114501953125000,571.4197998046875000,4.1314320564270020,55.3938217163085940,55,98,100,77,82,15553,0,0,0,0,2147125741,2147771053,2147574171,2147568713,115,2,13,40944
1355658708,5809,985.6199951171875000,40.6083793640136700,571.0623779296875000,4.1425418853759770,55.5373497009277340,55,98,101,79,81,15549,0,0,0,0,2147125028,2147777874,2147572452,2147570340,133,3,13,5719
1355662308,5811,993.0200195312500000,40.6131782531738300,570.7468872070312000,4.1523489952087400,55.5351295471191400,55,99,101,78,82,15551,0,0,0,0,2147124333,2147772525,2147574683,2147569389,651,2,13,55269
1355665908,5810,986.7999877929688000,40.1086006164550800,570.5841064453125000,4.1574082374572750,55.6077995300293000,56,98,101,78,81,15550,0,0,0,0,2147124114,2147773394,2147567588,2147568978,789,3,13,28431
1355669508,5809,991.1599731445312000,40.5195693969726560,570.9014892578125000,4.1475429534912110,55.5493202209472660,55,99,101,79,82,15551,0,0,0,0,2147120813,2147769380,2147565686,2147565970,306,3,13,37212
1355673108,5807,997.5100097656250000,40.2076988220214840,570.3765258789062000,4.1638598442077640,55.5907707214355500,56,100,100,78,81,15549,0,0,0,0,2147122358,2147768064,2147571657,2147565778,428,3,13,27359
1355676708,5809,996.7199707031250000,39.7833595275878900,570.4406127929688000,4.1618690490722660,55.6533393859863300,56,100,100,77,82,15548,0,0,0,0,2147125577,2147766070,2147575853,2147569344,161,3,13,30546
1355680308,5811,998.4400024414062000,39.4066696166992200,570.1301879882812000,4.1715130805969240,55.7077598571777340,56,100,99,78,83,15551,0,0,0,0,2147125558,2147773302,2147569545,2147570249,49,3,13,47486
1355683908,5807,991.1900024414062000,39.5213699340820300,570.9290161132812000,4.1466879844665530,55.6985282897949200,56,103,100,77,82,15547,0,0,0,0,2147127488,2147769874,2147575003,2147566902,224,3,13,26955
1355687508,5810,990.2500000000000000,40.2793083190918000,571.2213745117188000,4.1375980377197270,55.5843505859375000,55,98,100,77,82,15549,0,0,0,0,2147122724,2147772928,2147575497,2147570432,3482,3,13,35930
1355691108,5809,993.5200195312500000,40.4896202087402340,571.2916870117188000,4.1354122161865230,55.5568618774414060,55,102,100,78,82,15549,0,0,0,0,2147123931,2147770093,2147571565,2147570678,181,3,13,52720
1355694708,5810,993.4500122070312000,40.5851707458496100,571.1793823242188000,4.1389031410217285,55.5392799377441400,54,120,101,78,81,15550,0,0,0,0,2147125430,2147778660,2147574336,2147565430,3487,3,13,29912
1355698308,5810,989.0800170898438000,41.6514282226562500,571.8447265625000000,4.1182231903076170,55.3897895812988300,55,109,99,77,82,15550,0,0,0,0,2147123108,2147773421,2147569837,2147567341,3327,3,13,28124
1355701908,5811,993.0000000000000000,41.1928100585937500,571.7579956054688000,4.1209158897399900,55.4612007141113300,55,100,100,77,82,15550,0,0,0,0,2147126656,2147778368,2147577993,2147568329,26,3,13,43755
1355705508,5807,994.2800292968750000,41.1415214538574200,571.3732299804688000,4.1328811645507810,55.4599914550781250,56,97,100,77,83,15550,0,0,0,0,2147124214,2147771062,2147570002,2147570212,57,3,13,23822
1355709108,5812,999.7899780273438000,40.6656990051269500,571.4080200195312000,4.1318001747131350,55.5340995788574200,55,98,101,77,82,15547,0,0,0,0,2147126619,2147767716,2147575131,2147569289,131,3,13,25454
1355712708,5806,995.0800170898438000,39.9933013916015600,571.1430053710938000,4.1400361061096190,55.6294593811035160,54,99,101,78,83,15549,0,0,0,0,2147124598,2147768832,2147574592,2147570605,145,3,13,41676
1355716308,5812,995.5300292968750000,40.5887794494628900,571.1574707031250000,4.1395850181579590,55.5413818359375000,53,96,99,78,82,15548,0,0,0,0,2147129371,2147773723,2147576621,2147568064,59,3,13,9688
1355719908,5808,999.1599731445312000,40.2269096374511700,571.1887817382812000,4.1386132240295410,55.5915794372558600,54,99,100,79,82,15548,0,0,0,0,2147125769,2147776146,2147573001,2147572928,11,3,13,63994
1355723508,5811,998.6500244140625000,40.7382812500000000,571.1956787109375000,4.1383972167968750,55.5161895751953100,54,98,102,78,82,15546,0,0,0,0,2147125330,2147772297,2147574473,2147569499,212,3,13,48799
1355727108,5811,994.7600097656250000,40.2893791198730500,571.3881835937500000,4.1324138641357420,55.5846481323242200,55,98,100,78,81,15548,0,0,0,0,2147125860,2147771611,2147575003,2147564827,3511,3,13,7500
1355730708,5808,995.1599731445312000,40.4260597229003900,571.6331176757812000,4.1248002052307130,55.5649414062500000,55,99,99,78,82,15546,0,0,0,0,2147124470,2147775158,2147578139,2147567826,3548,3,13,60464
1355734308,5812,997.9299926757812000,40.8671989440918000,571.1461181640625000,4.1399421691894530,55.4999198913574200,55,98,100,78,82,15547,0,0,0,0,2147127195,2147769408,2147573997,2147569280,85,3,13,3766
1355737908,5809,999.0100097656250000,40.1163482666015600,570.6434936523438000,4.1555609703063965,55.6021118164062500,54,99,100,78,82,15545,0,0,0,0,2147124141,2147773604,2147577307,2147568576,113,3,13,36721
1355741508,5811,996.3499755859375000,40.0062217712402340,570.8950195312500000,4.1477451324462890,55.6271705627441400,55,98,100,77,83,15546,0,0,0,0,2147125257,2147772653,2147571529,2147570038,32,3,13,8652
1355745108,5810,1001.6199951171875000,40.1200599670410160,571.0034790039062000,4.1443729400634770,55.6123504638671900,55,100,101,78,81,15546,0,0,0,0,2147126354,2147776530,2147570587,2147569380,3556,2,13,46322
1355748708,5809,997.3599853515625000,40.1290702819824200,571.4609985351562000,4.1301498413085940,55.6082115173339840,54,100,100,78,83,15544,0,0,0,0,2147124736,2147771894,2147568822,2147569152,250,3,13,12870
1355752308,5812,1000.0200195312500000,40.5215682983398440,571.2833251953125000,4.1356749534606930,55.5501098632812500,56,98,100,78,81,15539,0,0,0,0,2147126939,2147772242,2147573120,2147570605,16,3,13,321
1355755908,5811,996.9799804687500000,40.2931709289550800,571.4807739257812000,4.1295337677001950,55.5867500305175800,55,99,101,78,81,15544,0,0,0,0,2147124022,2147770084,2147575369,2147567917,114,3,13,58964
1355759508,5811,995.9299926757812000,40.4771385192871100,571.4758300781250000,4.1296877861022950,55.5583686828613300,55,98,100,78,81,15543,0,0,0,0,2147126784,2147770642,2147574235,2147570523,465,3,13,55018
1355763108,5812,994.5000000000000000,40.8637619018554700,571.9998168945312000,4.1133980751037600,55.5098190307617200,54,97,101,79,81,15542,0,0,0,0,2147125248,2147772854,2147574902,2147571355,33,3,13,50253
1355766708,5809,989.4299926757812000,41.0088310241699200,572.2871704101562000,4.1044621467590330,55.4914512634277340,55,97,101,78,82,15544,0,0,0,0,2147124928,2147768841,2147572726,2147568173,438,3,13,14727
1355770308,5810,992.7399902343750000,41.0885391235351560,572.7991943359375000,4.0885410308837890,55.4827690124511700,55,102,100,78,82,15541,0,0,0,0,2147127771,2147774518,2147573147,2147568694,266,3,13,61975
1355771756,5811,993.2800292968750000,41.6046981811523440,572.4462280273438000,4.0995178222656250,55.4017295837402340,54,97,99,78,82,15543,0,0,0,0,2147125202,2147773010,2147577024,2147568704,135,2,13,7344
